RH
27 25 30 33 32 30 29 28 29 30 29 30 31 31 36 42 44 45 49 52 54 54 55 54 52 51 52 52 50 46 41 36 33 34 35 37 39 41 45 48 49 49 49 51 56 62 65 65 63 61 61 63 67 72 73 69 63 60 60 61 61 62 63 62 58 52 49 49 50 51 50 48 46 43 42 43 44 43 42 41 41 41 41 40 38
27 23 26 30 30 28 27 27 28 28 28 30 32 34 39 46 48 49 53 55 53 51 50 48 47 47 46 45 44 40 36 34 33 33 34 36 37 36 39 44 48 50 50 50 54 58 59 59 58 60 62 65 70 76 76 72 65 62 62 63 64 65 64 64 63 59 57 57 59 60 60 58 54 49 46 46 45 44 42 42 43 43 43 43 43
27 23 24 27 28 28 28 28 26 26 28 30 32 36 41 47 49 52 55 55 50 45 43 43 43 43 43 42 42 40 37 37 36 35 36 37 38 38 37 40 45 48 49 49 51 54 57 56 57 61 65 68 73 77 78 75 69 67 67 67 68 70 71 71 68 67 65 64 64 65 63 58 54 49 47 46 47 46 46 46 46 46 45 45 46
31 26 24 26 27 28 29 29 27 27 29 29 30 36 42 46 48 49 51 49 45 42 41 43 43 43 42 42 44 45 44 42 40 39 39 39 39 39 38 38 41 46 48 48 47 50 53 56 59 62 66 70 73 76 79 80 76 74 74 73 72 74 75 74 71 70 69 66 63 64 63 59 56 55 53 51 51 50 49 48 48 48 48 48 49
34 32 28 27 28 28 28 29 30 30 30 30 30 35 43 45 43 42 44 42 42 43 44 44 44 43 42 42 44 46 46 44 42 41 42 43 42 41 39 40 43 48 51 51 49 49 51 57 62 63 64 68 72 75 79 82 80 79 79 78 76 76 75 74 74 74 73 70 66 66 66 64 63 63 60 58 57 55 52 51 49 48 50 50 50
34 35 34 30 29 29 26 27 31 33 32 32 33 37 41 41 38 39 41 41 41 43 44 45 45 43 42 42 43 45 46 44 42 42 44 45 46 45 43 41 45 50 53 53 52 51 51 57 64 64 63 66 70 74 77 80 82 82 82 82 81 81 79 76 76 77 79 77 73 70 70 69 68 67 65 63 63 61 59 55 51 49 52 53 52
32 36 38 35 32 31 28 27 31 33 34 34 36 38 39 39 39 40 41 41 41 42 44 46 47 46 44 42 43 45 48 47 44 42 43 46 49 49 47 45 45 49 52 53 53 53 53 56 61 64 63 64 69 71 73 76 81 83 83 83 83 84 84 81 80 80 82 82 79 76 74 72 71 70 68 65 63 64 63 61 55 50 50 51 53
32 36 38 37 35 33 31 30 31 32 34 36 38 38 38 40 42 42 41 40 41 43 45 47 49 50 47 43 42 44 47 48 47 43 42 44 49 52 51 48 47 48 52 55 55 56 56 57 61 64 64 65 67 69 70 74 78 81 82 82 83 84 84 83 81 80 80 81 81 81 80 78 75 74 73 71 69 67 67 65 60 54 51 51 53
31 34 35 34 32 32 32 34 35 35 37 39 40 39 40 41 43 44 44 42 42 44 46 47 50 52 49 44 44 45 45 46 47 46 44 45 49 53 54 53 51 49 52 55 55 56 57 60 63 64 63 65 68 69 70 73 76 79 81 81 82 82 81 81 80 79 79 78 79 81 82 81 80 80 80 78 74 71 70 68 63 59 57 56 54
28 29 29 28 28 31 35 38 40 40 40 41 40 40 42 43 43 45 45 44 45 47 47 47 50 53 50 46 47 49 47 45 47 50 50 50 52 55 56 57 55 52 51 54 54 54 57 62 65 64 63 67 70 70 70 72 74 76 78 79 79 79 79 80 80 80 79 77 77 79 80 80 80 81 79 76 73 71 70 66 61 60 59 55 50
27 27 26 25 27 31 34 39 43 44 43 42 43 44 45 45 46 46 46 46 48 49 49 49 51 54 53 50 50 51 48 46 49 53 57 58 58 58 58 58 57 53 51 53 53 54 59 64 65 63 63 68 72 71 70 70 70 70 72 74 75 77 78 79 79 79 78 77 78 80 81 80 79 78 75 72 72 71 68 64 60 57 55 50 46
25 26 26 26 27 29 33 40 45 47 48 47 47 48 48 50 51 51 50 48 48 49 51 52 54 56 56 54 52 50 48 48 50 55 61 63 61 61 61 60 58 54 50 52 55 57 60 64 65 64 64 68 71 71 70 70 70 71 72 72 71 72 72 72 72 71 71 72 73 75 78 78 78 77 75 73 73 72 68 64 59 55 52 50 46
24 24 25 26 27 30 35 41 45 49 50 50 50 50 51 52 53 52 50 48 48 49 51 53 56 58 58 56 53 49 47 47 49 55 61 64 63 64 63 61 59 55 52 53 57 60 62 64 65 65 66 69 71 72 72 71 71 73 73 71 69 67 67 66 63 60 60 63 65 68 72 74 73 73 74 73 72 70 66 62 59 56 53 49 44
25 25 26 26 29 34 39 43 46 50 52 53 53 52 52 51 50 49 48 47 48 51 55 58 60 59 57 54 51 48 46 45 49 53 58 63 66 66 64 61 58 55 56 59 61 63 64 65 67 68 69 72 74 74 73 73 73 74 72 68 66 64 60 56 51 49 51 54 58 61 64 65 64 63 65 66 66 65 63 59 56 51 47 44 42
29 28 28 28 30 36 41 44 48 51 52 52 53 52 51 50 48 47 48 48 51 56 59 59 57 56 54 51 49 48 46 46 48 51 57 64 68 67 65 62 57 55 58 62 64 66 68 67 70 71 72 74 75 73 73 75 76 74 69 63 59 56 51 46 44 46 47 48 51 53 53 52 52 54 55 57 58 59 56 51 47 44 43 43 43
34 32 30 29 31 36 40 45 49 52 52 51 51 51 51 50 49 50 53 56 57 57 56 55 54 54 53 50 48 48 48 49 52 54 58 64 67 68 66 61 57 56 59 61 63 66 69 71 72 73 72 74 76 76 77 77 73 66 60 55 52 50 46 44 44 47 48 49 50 50 48 48 48 49 51 52 52 51 47 44 43 44 46 46 46
38 36 32 30 33 37 41 46 50 51 51 51 52 52 52 51 52 55 59 59 56 54 54 55 56 56 54 51 51 52 52 53 55 56 58 60 62 64 62 58 57 58 59 61 63 66 69 71 72 72 72 73 75 78 77 72 64 57 53 51 49 47 44 44 47 50 51 53 53 51 51 51 50 49 49 49 48 46 45 45 47 49 50 48 45
39 39 36 33 35 38 41 45 49 50 51 51 52 52 53 54 56 57 59 57 56 57 58 58 58 58 56 54 53 54 54 54 54 54 54 55 56 56 56 56 57 58 60 63 64 65 66 66 67 68 70 70 71 73 72 65 59 55 51 48 46 45 45 47 50 52 53 53 53 52 52 52 49 46 45 45 46 47 48 49 50 50 49 46 45
38 40 40 38 38 42 46 48 49 50 50 50 53 54 56 57 59 61 62 61 62 62 61 59 58 58 55 53 53 54 55 54 52 51 50 50 52 54 55 57 57 59 61 62 61 61 62 64 67 69 69 68 69 70 68 62 57 53 48 44 43 44 46 46 48 50 51 50 51 51 51 48 45 43 43 46 48 50 50 50 49 49 48 49 52
38 41 42 41 43 47 49 49 50 51 51 52 54 57 57 58 62 65 66 66 66 65 62 58 56 56 54 53 52 52 52 50 49 49 49 50 53 56 58 58 58 59 61 60 59 59 60 64 70 72 69 67 68 69 66 59 52 46 42 39 40 43 44 44 46 48 49 50 50 48 45 43 42 44 46 48 49 50 51 50 49 49 51 53 56
40 42 43 44 48 49 49 50 52 51 50 52 54 55 56 57 62 65 66 67 68 65 60 57 55 54 54 53 51 49 48 47 46 46 48 52 56 59 61 61 59 60 61 60 59 58 57 61 69 71 67 66 66 64 58 51 46 42 39 38 40 43 43 44 45 48 50 50 47 42 40 42 46 48 49 50 51 52 53 52 52 53 56 57 55
42 43 46 48 51 50 48 47 46 43 44 47 49 49 50 53 58 62 65 67 66 61 56 53 52 52 51 49 48 47 46 46 46 46 49 52 55 61 65 64 61 60 60 60 58 56 55 60 66 68 66 65 62 56 50 46 44 42 40 40 43 44 44 45 46 48 48 45 41 40 42 46 49 51 51 52 53 53 54 55 57 58 56 52 47
44 46 49 51 51 48 44 41 40 40 43 45 45 45 46 51 57 62 64 63 59 54 51 48 48 49 47 44 44 46 46 47 47 47 48 51 55 60 64 63 59 58 59 60 58 55 54 57 60 62 63 62 56 49 46 46 46 44 44 45 46 46 47 47 47 45 43 40 41 45 48 50 52 52 52 53 53 54 56 57 57 55 50 45 40
47 48 51 53 53 50 49 48 47 48 50 51 52 52 53 56 61 62 61 58 54 51 51 49 47 46 43 41 43 47 48 48 47 46 48 53 56 58 58 55 53 52 54 56 54 52 53 56 57 58 57 55 49 46 46 46 47 47 47 47 48 47 47 46 44 42 41 43 48 51 52 52 51 50 50 50 51 52 54 54 53 50 47 43 40
50 51 54 56 54 53 54 54 52 53 56 57 58 58 58 61 62 61 59 57 53 52 52 49 47 45 42 40 44 47 48 47 46 46 50 54 55 53 50 48 47 47 49 49 50 51 53 54 54 53 50 47 46 45 45 45 46 48 47 46 45 45 45 45 44 43 45 48 50 50 50 49 48 48 47 47 48 50 53 53 51 48 45 41 38
52 54 54 52 50 52 56 57 57 60 62 61 60 60 60 62 62 60 57 55 52 50 50 48 46 45 43 42 45 47 46 45 46 49 52 53 52 50 48 47 47 48 49 49 51 53 53 51 49 47 46 45 45 44 44 45 47 47 45 44 44 44 44 44 44 45 48 49 48 46 45 45 46 46 45 46 50 54 55 52 48 44 41 37 36
47 47 45 45 48 53 57 59 61 64 65 62 61 61 60 61 60 56 55 54 53 51 50 49 48 48 46 45 46 47 46 46 48 51 52 52 49 48 48 47 47 48 49 49 49 49 47 44 43 43 43 43 43 43 44 46 47 46 45 45 46 47 46 44 44 46 47 47 46 44 44 45 46 44 44 49 54 55 51 47 43 40 37 35 35
40 40 43 48 52 54 56 59 61 64 63 61 61 61 61 61 57 54 54 55 54 53 53 52 51 52 49 46 45 46 46 47 50 52 51 51 49 47 46 45 44 44 43 42 42 41 41 41 41 41 42 43 45 46 46 47 47 47 47 46 47 47 46 44 44 45 46 47 47 47 47 47 44 43 46 51 53 49 45 42 39 37 35 34 32
45 47 51 54 56 56 58 60 62 64 64 62 61 61 61 59 55 54 55 55 55 55 55 54 54 53 50 45 44 45 45 47 51 54 53 52 49 46 43 40 39 39 38 38 39 41 43 43 43 43 44 47 50 50 48 48 49 49 47 45 45 46 46 45 45 45 46 49 50 50 49 46 43 44 48 50 48 44 40 38 36 35 34 32 30
55 56 56 57 58 59 61 62 63 65 64 63 61 59 57 55 56 57 56 55 55 56 54 54 55 54 49 46 46 47 47 48 52 54 54 52 47 43 40 38 38 39 40 42 45 46 46 44 44 45 47 51 52 52 49 50 51 49 46 45 46 47 47 46 46 47 47 48 48 47 46 45 44 47 49 47 43 40 37 35 34 33 31 29 29
55 56 57 57 58 59 59 60 63 66 65 63 62 59 55 55 57 58 55 54 55 54 55 57 57 54 50 49 49 50 50 51 51 52 51 48 44 40 37 37 38 41 44 47 50 50 48 48 48 48 49 51 53 51 51 52 52 49 48 48 48 49 47 45 44 46 47 46 45 44 44 45 47 48 47 43 40 37 34 33 31 30 29 28 28
52 55 56 57 59 61 61 61 63 66 66 64 63 60 56 55 56 55 53 53 54 54 55 57 57 54 53 52 52 50 50 51 51 51 49 46 42 39 38 38 39 43 48 53 55 53 51 51 50 50 51 54 54 52 51 52 50 48 47 46 46 47 46 43 43 45 46 46 45 44 44 46 47 46 44 40 37 34 33 31 30 29 28 28 27
55 57 59 60 62 64 63 61 61 63 64 64 63 60 57 56 56 54 53 53 54 54 53 53 54 55 55 52 50 49 49 49 49 48 46 44 41 41 41 41 44 49 55 59 58 54 52 53 53 53 52 53 53 52 51 49 46 43 44 44 44 46 46 43 43 46 47 46 46 46 45 45 45 43 40 38 35 33 32 31 29 28 28 27 26
58 59 61 62 62 61 59 56 55 57 59 61 61 60 60 59 57 54 53 54 54 53 52 52 53 54 53 49 47 48 48 47 46 45 44 43 44 45 45 48 53 59 63 63 60 56 55 57 56 53 50 48 49 49 48 44 41 40 41 42 44 46 45 42 44 48 48 46 47 46 43 41 40 40 38 37 34 33 31 30 29 28 28 27 27
60 59 60 60 58 56 54 53 54 56 57 58 59 62 63 62 58 55 53 54 53 52 51 51 50 50 49 47 47 48 48 46 45 45 45 47 47 47 50 56 63 65 65 61 57 55 56 56 53 49 46 45 45 44 42 40 39 39 40 41 44 46 45 43 45 48 48 49 49 45 39 38 39 38 37 35 33 32 31 30 29 28 28 28 28
61 60 60 59 57 54 54 55 56 55 55 56 60 64 63 60 57 55 53 52 52 51 49 48 47 47 47 47 48 48 48 46 45 46 48 50 49 51 57 64 67 64 61 57 54 53 54 52 48 45 43 41 41 40 39 38 38 38 40 41 42 42 40 41 43 45 45 46 45 39 35 37 38 37 35 34 32 31 30 29 29 29 29 29 29
61 60 60 59 57 54 53 54 55 55 56 59 61 61 58 54 53 50 48 48 49 48 45 44 44 44 45 45 46 46 45 45 46 48 51 51 52 56 64 70 68 63 58 54 52 53 51 47 43 41 39 37 37 37 37 36 36 37 39 39 38 36 36 38 40 41 42 41 39 36 35 37 36 34 34 33 31 30 30 30 30 30 30 29 28
61 61 60 59 57 54 53 53 54 57 59 59 57 55 52 50 49 48 45 46 48 48 45 42 40 40 42 45 46 46 44 44 46 49 52 55 58 64 71 73 69 63 57 52 50 50 48 43 39 37 36 36 37 37 36 35 36 36 36 35 33 33 34 35 35 38 40 40 37 35 34 34 32 32 33 32 31 30 30 30 30 30 29 28 27
63 62 60 59 59 57 54 52 53 56 56 54 51 50 49 46 46 45 44 44 46 46 45 42 41 41 43 45 45 44 42 42 46 50 55 59 65 71 74 71 63 57 53 51 49 46 42 39 37 36 35 35 36 36 36 36 36 35 34 33 32 33 33 33 33 35 36 36 34 32 32 31 31 32 32 30 31 31 31 30 30 29 28 27 26
63 63 63 63 62 59 53 50 51 53 54 52 49 48 46 44 43 42 42 43 44 45 44 43 43 43 43 44 44 43 41 42 47 54 61 66 70 72 69 61 53 50 50 48 45 40 38 36 36 36 34 34 34 34 34 34 34 33 31 31 32 33 33 32 31 30 30 30 30 30 31 31 31 31 29 29 31 31 30 29 28 27 26 26 24
63 64 65 63 60 55 53 52 53 53 52 48 45 42 42 43 44 44 46 47 48 48 45 42 42 43 46 48 49 47 46 49 54 60 66 69 68 64 58 51 48 48 47 43 38 36 36 36 35 34 33 32 31 32 32 32 32 31 30 30 31 32 31 29 27 25 25 26 27 27 28 29 29 28 27 29 30 29 28 26 25 25 25 25 24
64 63 61 57 54 53 54 54 53 51 48 45 43 43 43 44 47 49 49 49 49 47 45 44 47 50 52 53 53 53 54 58 62 65 67 66 61 55 49 46 46 45 43 38 35 35 35 35 34 33 32 31 31 31 32 32 32 31 30 31 31 31 29 27 24 23 23 23 24 25 26 26 26 26 28 29 28 26 25 25 24 25 25 24 24
64 62 59 58 58 57 55 53 51 48 47 47 47 46 45 46 49 49 48 46 47 48 49 51 54 54 53 53 57 60 62 64 66 67 66 61 55 50 47 44 42 40 38 37 36 36 36 35 35 34 32 32 31 31 32 33 33 32 32 32 31 30 27 25 23 22 22 21 22 24 24 24 25 26 27 27 25 24 24 24 24 25 25 23 23
67 66 63 61 58 55 52 50 48 46 46 49 51 52 53 55 55 51 45 44 48 53 53 51 51 53 55 58 61 63 62 61 61 61 60 55 50 47 46 44 41 38 37 37 37 37 37 36 36 35 33 32 31 31 31 32 32 32 33 33 31 28 25 23 21 21 20 21 22 22 20 20 22 23 24 24 23 23 24 24 24 24 23 22 22
67 64 60 55 52 51 51 50 49 49 51 54 57 59 59 57 52 47 44 45 49 51 50 49 52 57 62 63 62 59 56 53 52 53 52 50 47 44 43 42 41 38 37 37 37 38 37 38 38 37 34 31 29 29 29 28 28 28 29 30 29 26 23 23 23 22 21 21 19 17 15 15 16 17 20 23 24 23 23 23 24 24 23 22 22
55 53 52 50 51 52 53 54 55 57 58 59 60 60 58 53 49 47 48 49 49 50 52 56 61 63 63 62 58 54 50 49 50 52 51 47 44 41 40 39 39 37 37 37 37 37 37 38 36 34 31 29 27 27 25 24 24 24 25 26 26 24 22 23 24 23 20 18 15 12 12 12 12 15 20 24 24 22 22 23 24 24 23 22 22
47 49 52 53 54 57 60 63 66 66 64 62 61 60 57 52 47 46 48 51 53 57 61 62 62 61 59 57 54 52 51 53 55 53 50 46 44 43 40 37 36 37 36 36 35 35 34 33 31 29 28 27 27 26 26 25 25 25 24 24 23 21 19 19 19 17 14 13 11 10 10 11 11 16 23 25 22 21 22 24 24 23 21 21 22
58 59 58 58 60 63 64 65 67 66 62 60 59 55 51 45 42 45 51 57 60 62 62 59 57 57 56 53 50 49 49 50 50 48 47 45 44 42 39 36 34 35 36 35 33 32 30 28 27 26 26 27 27 27 26 26 25 25 24 23 22 20 17 15 14 13 12 12 11 10 10 10 11 16 23 24 21 21 23 24 22 20 20 20 22
63 63 63 66 70 69 63 59 58 55 52 50 48 47 46 47 50 55 60 61 59 56 54 53 52 52 51 49 46 43 40 40 40 41 42 42 40 37 35 32 30 30 31 30 29 27 26 25 25 25 25 26 27 28 27 27 27 26 24 24 23 22 18 14 13 12 12 12 12 10 10 11 11 14 20 23 23 23 24 22 18 18 20 21 21
57 59 63 67 67 62 56 53 52 50 47 47 48 50 52 56 58 60 59 56 53 52 52 51 49 47 46 45 44 43 42 42 40 36 33 31 30 29 29 28 27 27 27 26 25 24 24 23 24 24 25 27 28 29 29 29 29 28 26 25 24 21 18 15 13 12 12 12 12 11 11 11 11 13 19 24 25 24 23 19 17 18 22 22 20
51 52 53 54 53 52 49 50 52 53 53 56 60 61 61 60 58 56 54 53 51 50 49 46 43 40 40 40 41 41 42 42 40 36 32 28 26 25 26 26 26 27 27 26 25 23 23 23 23 24 25 27 28 29 30 30 29 28 27 25 22 20 17 15 13 12 12 13 12 12 12 12 12 15 21 26 26 23 20 17 17 21 23 22 20